Location: Brantley
(31.5822°N, 86.2569°W)
Time: 04:57:03
(UTC+00:00)

A-11 Canister half - Pass Details

Date: 20 February 2026
Orbit: 1524 x 1683 km, 47.3° (Epoch: 14 March)

Event Time Altitude Azimuth Distance (km) Brightness Sun altitude
Rises 00:40:58 0° 293° (WNW) 4,692 12.7 -14.6°
Reaches altitude 10° 00:44:36 10° 304° (NW) 3,698 11.8 -15.4°
Maximum altitude 00:52:30 30° 3° (N) 2,474 10.0 -17.1°
Enters shadow 00:58:24 16° 52° (NE) 3,224 10.2 -18.3°
